Meath Environmental Platform

Observations for Trim Patrick St

Time AQI Temp °C Hum % Pres Pa CO μg/m³ H₂S μg/m³ NO μg/m³ NO₂ μg/m³ O₃ μg/m³ SO₂ μg/m³ PM1 μg/m³ PM2.5 μg/m³ PM10 μg/m³
Thursday 27 August 2026
20:35 3 18.3 84 38,460 0.06 4.98 0.98 17.27 43.41 1.01 20 28.5 31.35
20:34 3 18.3 84 38,460 0.06 4.8 0.84 16.01 40.07 0.95 20 27.82 30.61
20:33 3 18.3 84 38,460 0.05 5.04 0.86 18.12 41.43 1.34 18.29 26.45 29.1
20:32 3 18.3 84 38,460 0.07 4.22 0.9 14.73 42.03 1.06 18.29 26.45 29.1
20:31 3 18.4 84 38,460 0.09 6.03 0.79 20.91 45.52 0.8 18.29 27.16 29.87
20:30 3 18.4 84 38,460 0.05 4.56 0.83 16.44 41.88 1.26 19.14 27.85 30.64
20:29 3 18.4 84 38,460 0.06 4.85 0.96 17.33 41.43 0.93 19.14 28.54 31.4
20:28 3 18.4 83 38,460 0.08 5.43 0.96 18.71 43.32 1.04 17.43 26.48 29.13
20:27 3 18.4 83 38,460 0.07 6.45 1.03 27.34 33.43 0.61 19.14 26.48 29.13
20:26 3 18.4 83 38,460 0.06 4.93 1.37 16.68 45.33 0.74 19.14 27.18 29.9
20:25 3 18.4 83 38,460 0.05 4.82 1.28 14.52 45.11 1.43 19.14 28.57 31.43
20:24 3 18.5 83 38,460 0.03 4.46 1.14 16.19 45.25 0.72 20 28.58 31.44
20:23 3 18.5 83 38,460 0.04 4.59 1.09 17.07 43.41 1.13 20 27.2 29.92
20:22 3 18.5 83 38,460 0.04 4.56 1.19 15.85 46.41 1.32 18.29 27.21 29.93
20:21 3 18.5 83 38,460 0.03 4.59 1.12 15.54 46.73 1.02 18.29 25.82 28.41
20:20 3 18.5 83 38,460 0.05 5.27 1.23 16.74 43.52 1.08 20.86 28.6 31.46
20:19 3 18.5 83 38,460 0.04 4.85 1.3 17.58 44.01 0.83 16.57 26.53 29.18
20:18 3 18.5 83 38,460 0.05 4.74 1.36 17.01 43.33 1.63 19.14 28.61 31.47
20:17 3 18.6 83 38,460 0.04 4.72 1.38 17.93 43.82 1.06 18.29 27.93 30.72
20:16 3 18.6 83 38,460 0.05 5.9 1.3 23.58 37.32 1.17 16.57 24.46 26.91